SCP
0 0 0 0 0 0 0 0 0 0 0 0 0 0 0 0 0 0 0 0 0 0 0 0 0 0 0 0 0 0 0 0 0 0 0 0 0 0 0 0 0 0 0 0
0 0 0 0 0 0 0 0 0 0 0 0 0 0 0 0 0 0 0 0 0 0 0 0 0 0 0 0 0 0 0 0 0 0 0 0 0 0 0 0 0 0 0 0
0 0 0 0 0 0 0 0 0 0 0 0 0 0 0 0 0 0 0 0 0 0 0 0 0 0 0 0 0 0 0 0 0 0 0 0 0 0 0 0 0 0 0 0
0 0 0 0 0 0 0 0 0 0 0 0 0 0 0 0 0 0 0 0 0 0 0 0 0 0 0 0 0 0 0 0 0 0 0 0 0 0 0 0 0 0 0 0
0 0 0 0 0 0 0 0 0 0 0 0 0 0 0 0 0 0 0 0 0 0 0 0 0 0 0 0 0 0 0 0 0 0 0 0 0 0 0 0 0 0 0 0
0 0 0 0 0 0 0 0 0 0 0 0 0 0 0 0 0 0 0 0 0 0 0 0 0 0 0 0 0 0 0 0 0 0 0 0 0 0 0 0 0 0 0 0
0 0 0 0 0 0 0 0 0 0 0 0 0 0 0 0 0 0 0 0 0 0 0 0 0 0 0 0 0 0 0 0 0 0 0 0 0 0 0 0 0 0 0 0
0 0 0 0 0 0 0 0 0 0 0 0 0 0 0 0 0 0 0 0 0 0 0 0 0 0 0 0 0 0 0 0 0 0 0 0 0 0 0 0 0 0 0 0
0 0 0 0 0 0 0 0 0 0 0 0 0 0 0 0 0 0 0 0 0 -0 -0 -0 0 0 0 0 0 0 0 0 0 0 0 0 0 0 0 0 0 0 0 0
0 0 0 0 0 0 0 0 0 0 0 0 0 0 0 0 0 0 0 0 -0 -0 -0 -0 0 0 0 0 0 0 0 0 0 0 0 0 0 0 0 0 0 0 0 0
0 0 0 0 0 0 0 0 0 0 0 0 0 0 0 0 0 0 0 0 0 0 -0 0 0 0 0 0 0 0 0 0 0 0 0 0 0 0 0 0 0 0 0 0
0 0 0 0 0 0 0 0 0 0 0 0 0 0 0 0 0 0 0 0 0 0 0 0 0 0 0 0 0 0 0 0 0 0 0 0 0 0 0 0 0 0 0 0
0 0 0 0 0 0 0 0 0 0 0 0 0 0 0 0 0 0 0 0 0 0 0 0 0 0 0 0 0 0 0 0 0 0 0 0 0 0 0 0 0 0 0 0
0 0 0 0 0 0 0 0 0 0 0 0 0 0 0 0 0 0 0 0 0 0 0 0 0 0 0 0 0 0 0 0 0 0 0 0 0 0 0 0 0 0 0 0
0 0 0 0 0 0 0 0 0 0 0 0 0 0 0 0 0 0 0 -0 -0 0 0 0 0 0 0 0 0 0 0 0 0 0 0 0 0 0 0 0 0 0 0 0
0 0 0 0 0 0 0 0 0 0 0 0 0 0 0 0 0 0 0 0 -0 0 0 0 0 0 0 0 0 0 0 0 0 0 0 0 0 0 0 0 0 0 0 0
0 0 0 0 0 0 0 0 0 0 0 0 0 0 -0 -0 -0 0 -0 0 0 0 0 0 0 0 0 0 0 0 0 0 0 0 0 0 0 0 0 0 0 0 0 0
0 0 0 0 0 0 0 0 0 0 0 0 0 0 -0 -0 -0 0 0 0 0 0 0 0 0 0 0 0 0 0 0 0 0 0 0 0 0 0 0 0 0 0 0 0
0 0 0 0 0 0 0 0 0 0 0 0 0 0 -0 -0 0 0 0 0 0 0 0 0 0 0 0 0 0 0 0 0 0 0 0 0 0 0 0 0 0 0 0 0
0 0 0 0 0 0 0 0 0 0 0 0 0 0 0 0 0 0 0 0 0 0 0 0 0 0 0 0 0 0 0 0 0 0 0 0 0 0 0 0 0 0 0 0
0 0 0 0 0 0 0 0 0 0 0 0 0 0 0 0 0 0 0 0 0 0 0 0 0 0 0 0 0 0 0 0 0 0 0 0 0 0 0 0 0 0 0 0
0 0 0 0 0 0 0 0 0 0 0 0 0 0 0 0 0 0 0 0 0 0 0 0 0 0 0 0 0 0 0 0 0 0 0 0 0 0 0 0 0 0 0 0
0 0 0 0 0 0 0 0 0 0 0 0 0 0 0 0 0 0 0 0 0 0 0 0 0 0 0 0 0 0 0 0 0 0 0 0 0 0 0 0 0 0 0 0
0 0 0 0 0 0 0 0 0 0 0 0 0 0 0 0 0 0 0 0 0 0 0 0 0 0 0 0 0 0 0 0 0 0 0 0 0 0 0 0 0 0 0 0
0 0 0 0 0 0 0 0 0 0 0 0 0 0 0 0 0 0 0 0 0 0 0 0 0 0 0 0 0 0 0 0 0 0 0 0 0 0 0 0 0 0 0 0
0 0 0 0 0 0 0 0 0 0 0 0 0 0 0 0 0 0 0 0 0 0 0 0 0 0 0 0 0 0 0 0 0 0 0 0 0 0 0 0 0 0 0 0
Wind_Speed
2 4 2 5 6 4 3 3 5 5 2 2 6 9 10 6 4 5 5 4 4 5 4 1 1 2 2 2 2 2 2 2 2 2 2 2 2 1 1 1 1 1 1 1
3 2 5 3 3 3 3 4 5 5 2 2 5 9 8 6 6 7 7 6 5 4 2 1 1 1 2 3 2 2 2 2 2 2 2 1 2 1 1 0 1 1 1 1
4 4 2 2 2 2 4 5 5 5 5 3 4 8 5 4 3 4 5 5 4 5 5 3 2 2 2 2 3 3 3 2 2 1 1 2 1 1 1 0 0 0 1 0
2 3 1 1 3 3 5 3 4 3 2 4 1 6 7 3 4 5 5 4 5 5 4 4 3 3 3 3 3 2 2 2 2 2 3 3 2 2 2 1 1 0 0 0
3 1 1 3 3 3 4 3 2 2 2 4 2 4 9 1 4 6 5 5 5 5 4 4 4 4 3 2 2 2 2 2 2 2 3 3 2 1 0 1 1 0 0 0
3 2 1 2 2 1 1 2 2 2 2 4 6 5 8 4 6 4 4 5 4 4 3 3 2 2 1 1 2 2 2 2 2 2 2 2 2 2 1 1 0 1 1 1
4 3 2 0 1 2 3 3 3 4 2 6 2 4 10 5 4 4 4 4 3 3 2 2 1 1 1 2 2 2 3 2 1 2 2 2 2 3 3 2 1 1 1 1
2 5 3 1 2 3 2 4 4 4 5 5 2 7 8 3 2 2 2 2 1 2 2 2 2 2 2 2 2 2 2 2 1 1 1 1 2 2 1 1 1 2 2 2
3 5 2 1 0 3 2 2 3 3 2 4 6 7 8 2 3 2 1 0 1 2 2 2 2 1 1 2 2 3 3 2 2 1 1 1 1 1 1 1 1 1 1 1
4 4 3 2 1 1 2 3 3 3 2 5 6 5 5 4 4 3 2 3 3 3 2 2 1 1 1 1 1 1 2 2 1 1 1 1 1 1 1 1 1 1 1 1
2 3 4 1 3 4 2 2 2 2 3 4 5 8 5 5 4 4 4 4 3 3 2 2 1 1 1 0 1 1 1 0 0 0 1 1 1 0 0 1 1 1 1 1
2 3 4 6 3 2 4 5 6 4 5 4 4 10 4 3 3 2 4 3 2 3 2 2 1 0 0 0 0 0 0 0 0 0 0 1 0 0 0 1 1 1 1 1
3 3 2 5 2 1 2 3 4 4 3 4 6 10 2 2 3 3 4 4 3 2 2 1 1 1 1 1 1 1 1 1 1 1 0 0 1 1 1 1 1 1 1 1
4 4 7 9 6 3 4 5 4 5 5 7 11 13 9 7 6 5 5 5 4 3 3 2 2 2 2 1 1 1 1 1 1 0 1 1 1 1 1 1 1 1 1 1
3 4 7 9 7 5 8 9 8 11 11 11 12 13 14 9 7 7 5 5 4 4 4 4 4 3 2 2 2 2 1 1 1 1 1 2 2 1 1 2 2 1 1 2
2 3 3 7 6 6 10 12 12 14 12 14 14 17 12 8 5 5 6 5 6 6 6 5 4 4 3 3 3 2 2 2 1 1 2 2 1 1 1 2 2 2 2 2
4 4 3 7 5 5 11 12 11 9 9 9 14 15 7 6 7 7 6 6 7 7 6 5 5 5 4 4 3 3 3 2 1 2 2 1 1 2 2 2 2 2 2 2
6 5 3 4 1 10 10 3 6 8 9 9 9 9 6 7 7 6 5 5 6 6 6 5 4 4 3 3 2 2 1 2 2 2 2 2 2 2 2 2 2 3 2 2
5 6 4 3 6 12 9 4 4 6 9 7 10 11 8 5 4 5 3 3 5 5 4 4 3 2 1 2 2 1 2 2 2 3 3 2 2 2 2 2 3 3 2 3
1 3 4 4 6 9 8 2 2 2 7 4 5 8 6 1 3 6 2 2 3 3 2 2 1 0 1 1 1 2 2 2 3 3 3 3 3 3 3 3 3 2 2 3
3 3 6 8 9 11 6 2 3 4 7 2 4 5 4 5 7 4 3 3 2 2 2 1 0 1 1 1 1 2 2 4 4 2 2 2 2 2 3 3 2 2 3 3
8 7 7 6 8 12 3 5 7 8 2 2 3 4 5 6 5 4 3 3 2 2 1 1 0 1 2 1 1 2 3 3 2 1 1 2 2 2 2 2 2 2 2 3
8 9 7 10 10 6 6 7 5 2 3 4 4 4 4 5 5 4 4 3 2 2 2 1 1 1 2 1 1 2 3 2 1 1 1 1 2 2 2 2 2 2 2 3
5 3 4 7 10 7 7 6 4 4 5 5 5 5 4 5 5 4 4 3 2 2 2 1 1 1 2 2 2 2 2 1 1 1 2 2 2 2 2 2 2 3 3 3
7 5 5 8 8 5 6 6 7 5 4 4 4 4 4 4 5 4 4 3 2 2 1 1 1 2 3 2 2 2 2 1 1 2 2 2 2 2 2 3 3 4 4 5
6 8 8 9 6 5 6 3 3 4 5 4 4 3 3 3 4 3 3 2 1 1 1 1 1 2 3 2 3 3 2 1 1 2 2 2 2 2 2 3 3 6 7 9
Wind_Direction
66 78 205 225 212 212 209 228 258 259 263 258 251 260 261 241 222 233 237 231 230 236 245 235 198 169 144 133 143 167 167 182 157 158 170 170 173 169 154 133 108 126 129 133
51 254 238 236 229 232 238 257 269 283 292 261 271 274 265 234 221 219 220 226 227 233 244 238 194 157 169 179 181 180 181 173 173 181 181 170 155 152 156 123 83 78 107 141
194 245 251 225 251 246 254 235 246 264 316 303 304 295 266 252 223 226 225 221 218 207 210 215 206 199 193 197 197 189 191 176 168 143 122 109 86 78 92 62 335 14 89 114
241 274 282 233 233 213 254 240 242 248 295 284 238 286 278 248 257 250 246 234 228 222 214 211 204 209 207 211 202 182 177 166 154 140 140 148 164 180 201 194 196 221 127 107
260 274 237 233 248 222 240 276 262 235 218 284 254 239 281 296 266 262 248 237 231 226 215 212 211 211 207 196 180 179 158 140 134 138 152 157 157 169 131 126 165 205 243 191
265 287 236 234 274 222 264 15 29 51 92 266 232 199 274 239 235 258 244 233 231 225 223 220 215 186 162 145 146 148 142 131 133 139 148 155 156 151 134 123 188 241 247 240
310 292 304 60 32 11 53 69 7 345 318 252 223 202 252 253 238 228 230 232 235 223 214 208 198 189 175 159 160 154 144 145 150 152 163 168 170 172 172 176 195 221 252 264
287 282 249 221 180 197 211 150 168 230 251 282 293 234 252 277 288 275 238 218 235 230 219 214 206 196 192 185 172 159 158 156 153 163 183 176 167 181 191 192 192 216 236 246
206 263 307 242 241 157 165 209 189 164 263 272 268 280 296 312 334 336 338 14 261 255 233 225 214 194 190 180 184 177 174 172 174 178 180 170 158 177 191 197 199 223 249 262
177 258 281 301 27 293 171 155 102 143 225 267 282 273 261 273 276 291 297 269 267 278 266 258 237 214 208 190 172 157 173 193 192 180 194 198 197 205 202 190 204 232 254 264
143 207 293 326 203 208 164 162 162 176 188 202 269 267 236 232 233 235 248 254 260 274 269 266 263 240 195 95 108 125 131 132 182 215 242 229 222 234 194 203 228 238 246 249
160 152 258 252 245 228 196 193 166 183 237 217 238 266 272 243 262 239 255 264 265 267 264 261 266 286 88 75 15 266 145 148 312 312 285 251 253 243 231 263 264 260 250 249
151 137 304 320 306 336 240 221 199 184 183 208 226 262 297 316 310 294 276 271 263 260 262 260 252 235 245 252 266 283 280 261 303 329 293 287 280 260 256 268 273 270 267 269
136 172 201 225 236 205 236 238 209 185 215 234 235 256 278 285 283 283 274 267 261 258 256 248 246 244 247 249 247 252 272 281 279 281 264 263 265 265 269 277 271 262 259 260
141 222 239 252 255 238 241 241 221 218 221 228 247 250 262 265 259 260 258 259 256 259 257 247 244 244 242 253 262 262 270 282 274 244 257 271 283 288 290 286 278 275 270 268
167 225 248 267 253 250 262 253 236 234 235 241 257 265 262 268 268 267 264 258 255 255 255 251 245 242 238 237 242 251 260 263 254 244 263 283 290 292 287 284 286 286 283 282
189 191 227 265 282 305 264 240 218 220 221 215 238 250 267 271 263 258 258 252 251 257 258 254 246 238 236 235 232 231 240 245 234 242 258 270 275 280 284 285 287 278 276 282
184 188 211 261 302 247 247 222 206 221 239 224 239 260 262 257 273 274 258 249 263 267 262 259 251 244 242 239 235 230 225 224 228 242 253 257 260 268 278 280 278 278 277 271
195 190 211 221 249 267 278 242 186 208 260 229 236 260 273 293 314 286 255 248 263 276 273 266 260 254 247 240 228 206 224 229 229 238 246 249 246 251 256 262 268 277 278 276
153 185 207 216 237 250 254 232 183 145 266 245 219 250 269 323 286 276 296 308 301 308 303 294 308 329 263 266 218 189 227 237 243 246 249 247 239 238 247 255 266 272 269 268
176 201 216 226 241 259 262 220 124 189 250 258 214 235 235 220 240 275 307 305 302 315 323 321 316 306 284 276 204 214 237 247 254 256 258 255 250 246 250 259 269 271 270 275
188 193 208 201 226 251 210 143 189 224 256 247 246 242 243 251 269 278 277 282 294 307 320 323 313 308 314 305 213 238 256 267 270 248 256 270 271 265 263 260 275 275 266 268
204 198 195 200 220 237 181 202 224 213 235 249 248 258 253 258 264 268 270 266 272 273 281 283 268 297 317 309 237 248 278 291 286 267 265 276 280 277 269 255 263 271 262 258
238 205 208 245 255 248 236 242 253 240 240 255 258 262 256 255 259 260 258 257 261 265 265 278 283 293 304 310 291 266 289 298 252 252 267 267 266 273 274 268 262 262 257 257
222 188 214 247 266 288 261 235 243 247 254 262 269 260 249 248 257 253 254 255 249 263 274 248 241 263 282 297 297 299 307 297 265 259 258 257 259 263 267 270 265 265 255 252
199 190 199 234 224 215 248 240 231 232 246 252 262 275 270 243 253 257 253 249 241 254 259 258 263 271 281 287 289 296 292 259 245 262 261 256 256 258 263 271 286 282 279 281